TimeEST,TemperatureF,Dew PointF,Humidity,Sea Level PressureIn,VisibilityMPH,Wind Direction,Wind SpeedMPH,Gust SpeedMPH,PrecipitationIn,Events,Conditions,WindDirDegrees,DateUTC
12:54 AM,39.0,33.1,79,29.93,10.0,ENE,3.5,-,N/A,,Overcast,70,2014-02-21 05:54:00
1:54 AM,39.0,33.1,79,29.92,10.0,Calm,Calm,-,N/A,,Overcast,0,2014-02-21 06:54:00
2:54 AM,37.9,34.0,86,29.90,9.0,East,3.5,-,N/A,,Mostly Cloudy,80,2014-02-21 07:54:00
3:26 AM,39.2,33.8,81,29.89,8.0,Calm,Calm,-,N/A,,Overcast,0,2014-02-21 08:26:00
3:54 AM,37.9,34.0,86,29.89,7.0,Calm,Calm,-,N/A,,Overcast,0,2014-02-21 08:54:00
4:17 AM,37.4,33.8,87,29.87,7.0,East,4.6,-,N/A,,Overcast,90,2014-02-21 09:17:00
4:54 AM,39.0,34.0,82,29.87,7.0,East,3.5,-,N/A,,Overcast,100,2014-02-21 09:54:00
5:54 AM,39.0,34.0,82,29.83,9.0,ESE,5.8,-,N/A,,Overcast,110,2014-02-21 10:54:00
6:54 AM,39.9,35.1,83,29.82,5.0,Calm,Calm,-,N/A,,Haze,0,2014-02-21 11:54:00
7:54 AM,43.0,39.0,86,29.81,3.0,Calm,Calm,-,N/A,,Overcast,0,2014-02-21 12:54:00
8:06 AM,42.8,39.2,87,29.80,2.5,Calm,Calm,-,N/A,,Overcast,0,2014-02-21 13:06:00
8:54 AM,45.0,43.0,93,29.78,2.5,ESE,3.5,-,N/A,,Overcast,110,2014-02-21 13:54:00
9:22 AM,46.4,42.8,87,29.78,3.0,ENE,4.6,-,N/A,,Overcast,70,2014-02-21 14:22:00
9:43 AM,46.4,42.8,87,29.77,4.0,Calm,Calm,-,N/A,,Overcast,0,2014-02-21 14:43:00
9:54 AM,48.0,44.1,86,29.76,4.0,Calm,Calm,-,N/A,,Overcast,0,2014-02-21 14:54:00
10:15 AM,50.0,46.4,87,29.75,4.0,East,3.5,-,0.01,,Overcast,100,2014-02-21 15:15:00
10:54 AM,54.0,48.0,80,29.72,5.0,ENE,6.9,-,N/A,,Haze,70,2014-02-21 15:54:00
11:22 AM,57.2,50.0,77,29.69,6.0,East,6.9,-,0.01,,Haze,90,2014-02-21 16:22:00
11:40 AM,59.0,51.8,77,29.67,6.0,East,5.8,-,0.01,,Haze,90,2014-02-21 16:40:00
11:54 AM,62.1,54.0,75,29.65,6.0,Variable,6.9,-,0.01,,Haze,0,2014-02-21 16:54:00
12:05 PM,62.6,55.4,77,29.63,8.0,ESE,8.1,-,0.01,,Overcast,120,2014-02-21 17:05:00
12:33 PM,53.6,51.8,94,29.64,1.0,North,8.1,16.1,0.07,Rain,Heavy Rain,350,2014-02-21 17:33:00
12:38 PM,55.4,53.6,94,29.65,1.5,SW,6.9,16.1,0.19,Rain,Heavy Rain,220,2014-02-21 17:38:00
12:43 PM,57.2,55.4,94,29.64,3.0,West,5.8,-,0.20,Rain,Light Rain,280,2014-02-21 17:43:00
12:47 PM,57.2,53.6,88,29.66,4.0,WNW,5.8,-,0.20,Rain,Light Rain,290,2014-02-21 17:47:00
12:54 PM,55.0,53.1,93,29.67,5.0,West,5.8,-,0.19,Rain,Light Rain,280,2014-02-21 17:54:00
1:17 PM,59.0,55.4,88,29.68,0.5,West,25.3,38.0,0.02,Fog-Rain,Heavy Rain,260,2014-02-21 18:17:00
1:21 PM,57.2,53.6,88,29.68,1.0,WNW,28.8,38.0,0.10,Rain,Heavy Rain,290,2014-02-21 18:21:00
1:26 PM,53.6,48.2,82,29.70,3.0,WNW,25.3,38.0,0.11,Rain,Light Rain,300,2014-02-21 18:26:00
1:54 PM,48.9,45.0,86,29.74,6.0,WNW,12.7,24.2,0.16,Rain,Light Rain,300,2014-02-21 18:54:00
2:42 PM,48.2,41.0,76,29.75,10.0,WNW,8.1,-,0.01,,Mostly Cloudy,300,2014-02-21 19:42:00
2:54 PM,48.0,41.0,77,29.76,10.0,WNW,6.9,-,0.01,,Mostly Cloudy,290,2014-02-21 19:54:00
3:54 PM,48.0,39.0,71,29.77,10.0,WNW,3.5,-,0.00,,Mostly Cloudy,290,2014-02-21 20:54:00
4:54 PM,50.0,39.0,66,29.79,10.0,Calm,Calm,-,N/A,,Mostly Cloudy,0,2014-02-21 21:54:00
5:54 PM,46.0,39.0,76,29.82,10.0,Calm,Calm,-,N/A,,Mostly Cloudy,0,2014-02-21 22:54:00
6:54 PM,39.9,37.9,93,29.86,10.0,Calm,Calm,-,N/A,,Scattered Clouds,0,2014-02-21 23:54:00
7:54 PM,37.9,37.0,97,29.89,10.0,Calm,Calm,-,N/A,,Partly Cloudy,0,2014-02-22 00:54:00
8:54 PM,37.0,36.0,96,29.91,10.0,Calm,Calm,-,N/A,,Clear,0,2014-02-22 01:54:00
9:54 PM,35.1,34.0,96,29.93,10.0,Calm,Calm,-,N/A,,Partly Cloudy,0,2014-02-22 02:54:00
10:54 PM,36.0,35.1,97,29.95,10.0,SW,3.5,-,N/A,,Partly Cloudy,230,2014-02-22 03:54:00
11:54 PM,34.0,32.0,92,29.97,9.0,Calm,Calm,-,N/A,,Partly Cloudy,0,2014-02-22 04:54:00